[[{"header":{"parameterUnit":"m.s-1","parameterCategory":1,"la1":30.2992,"la2":30.254,"lo1":-89.0895,"lo2":-89.0443,"dy":0.0025,"dx":0.0025,"nx":19,"ny":19,"refTime":"2026-04-07T21:00:00:Z","depth":0,"parameterNumber":2,"parameterNumberName":"U-component_of_WINDS"},"data":[0,0,0,-5.1411,-5.1413,-5.1504,-5.1504,-5.1636,-5.1638,0,0,0,0,0,0,0,0,0,0,0,-5.1392,-5.1394,-5.1411,-5.1413,-5.1504,-5.1504,-5.1636,-5.1638,0,0,0,0,0,0,0,0,0,0,0,-5.1392,-5.1393,-5.1395,-5.1413,-5.1504,-5.1504,-5.1636,-5.1562,0,0,0,0,0,0,0,0,0,0,-5.1471,-5.1462,-5.1393,-5.1395,-5.1414,-5.1504,-5.1504,-5.1558,-5.1566,-5.1602,0,-5.1635,0,-5.1638,-5.1648,-5.1648,0,0,0,-5.1407,-5.1455,-5.1472,-5.1395,-5.1415,-5.1504,-5.1461,-5.1563,-5.1572,-5.1613,-5.1636,-5.1641,-5.1641,-5.1648,-5.1649,-5.1873,-5.1874,0,0,-5.1402,-5.1414,-5.1465,-5.1478,-5.1464,-5.1458,-5.1464,-5.1568,-5.1595,-5.1637,-5.1644,-5.1643,-5.1649,-5.1651,-5.1872,-5.1873,0,0,0,-5.1392,-5.141,-5.1424,-5.1473,-5.1489,-5.1461,-5.1468,-5.159,-5.1593,-5.1645,-5.1644,-5.165,-5.1652,-5.187,-5.1872,-5.1951,0,0,0,-5.1388,-5.1404,-5.1422,-5.143,-5.1487,-5.154,-5.1487,-5.1586,-5.1598,-5.1644,-5.165,-5.1654,-5.1869,-5.1871,-5.1946,-5.1986,0,0,0,-5.1384,-5.1404,-5.142,-5.1431,-5.147,-5.1538,-5.1547,-5.1588,-5.1598,-5.1648,-5.1654,-5.1868,-5.1871,-5.1941,-5.1978,-5.205,0,0,0,-5.1382,-5.1487,-5.1421,-5.1539,-5.147,-5.1586,-5.1547,-5.1632,-5.1685,-5.1651,-5.1869,-5.1872,-5.1939,-5.1974,-5.2045,-5.2113,-5.2142,0,0,-5.1522,-5.1505,-5.1573,-5.1516,-5.1647,-5.1571,-5.1714,-5.175,-5.1745,-5.1831,-5.1836,-5.1947,-5.1978,-5.2049,-5.2299,-5.2323,0,0,0,-5.1621,-5.1671,-5.1703,-5.1754,-5.1785,-5.1815,-5.1829,-5.1843,-5.1916,-5.1791,-5.1991,-5.2009,-5.2051,-5.2083,-5.2103,-5.2138,-5.1887,-5.1887,-5.1886,-5.1837,-5.1824,-5.1936,-5.1935,-5.1985,-5.1999,-5.2038,-5.206,-5.2031,-5.2079,-5.2105,-5.2259,-5.2297,-5.2312,-5.2349,-5.2139,-5.2139,-5.214,-5.214,-5.2041,-5.211,-5.2071,-5.2166,-5.2153,-5.2233,-5.2251,-5.2229,-5.2303,-5.2238,-5.2273,-5.2205,-5.2338,-5.2369,-5.2146,-5.2145,-5.2144,-5.2143,-5.2143,-5.2182,-5.2213,-5.2228,-5.2301,-5.2359,-5.2354,-5.2427,-5.2411,-5.2397,-5.2432,-5.2459,-5.2458,-5.2456,-5.2446,-5.2447,-5.2447,-5.2448,-5.2448,-5.2448,-5.2322,-5.2337,-5.24,-5.2443,-5.2474,-5.2514,-5.253,-5.2561,-5.2591,-5.2574,-5.2574,-5.2543,-5.2352,-5.2306,-5.2457,-5.2455,-5.2454,-5.2453,-5.2453,-5.2537,-5.2486,-5.2584,-5.2616,-5.2665,-5.2725,-5.2704,-5.2769,-5.2792,-5.2829,-5.279,-5.2651,-5.2633,-5.2617,-5.2579,-5.2791,-5.2791,-5.2791,-5.2791,-5.2657,-5.2646,-5.2743,-5.2795,-5.2844,-5.2836,-5.2949,-5.2963,-5.297,-5.2984,-5.295,-5.2897,-5.2882,-5.2873,-5.2852,-5.2815,-5.3084,-5.3084,-5.3084,-5.2789,-5.2782,-5.2881,-5.2886,-5.2924,-5.2958,-5.3064,-5.3127,-5.3124,-5.3096,-5.2995,-5.2983,-5.2897,-5.2869,-5.284,-5.2807,-5.274,0,0]},{"header":{"parameterUnit":"m.s-1","parameterCategory":1,"la1":30.2992,"la2":30.254,"lo1":-89.0895,"lo2":-89.0443,"dy":0.0025,"dx":0.0025,"nx":19,"ny":19,"refTime":"2026-04-07T21:00:00:Z","depth":0,"parameterNumber":3,"parameterNumberName":"V-component_of_WINDS"},"data":[0,0,0,-1.2822,-1.2823,-1.2853,-1.2853,-1.2903,-1.2904,0,0,0,0,0,0,0,0,0,0,0,-1.2821,-1.2822,-1.2822,-1.2823,-1.2853,-1.2853,-1.2903,-1.2904,0,0,0,0,0,0,0,0,0,0,0,-1.2821,-1.2822,-1.2822,-1.2823,-1.2853,-1.2853,-1.2903,-1.2876,0,0,0,0,0,0,0,0,0,0,-1.2846,-1.2851,-1.2821,-1.2822,-1.2824,-1.2853,-1.2853,-1.2875,-1.2878,-1.2895,0,-1.2912,0,-1.2909,-1.2908,-1.2908,0,0,0,-1.2818,-1.2849,-1.285,-1.2822,-1.2824,-1.2853,-1.2838,-1.2877,-1.288,-1.29,-1.2913,-1.2914,-1.291,-1.2908,-1.2909,-1.3026,-1.3026,0,0,-1.2817,-1.283,-1.2848,-1.2853,-1.2848,-1.2837,-1.2839,-1.2879,-1.2894,-1.2913,-1.2915,-1.2911,-1.2909,-1.2909,-1.3025,-1.3026,0,0,0,-1.2815,-1.283,-1.2829,-1.2851,-1.2855,-1.2838,-1.284,-1.2892,-1.2891,-1.2916,-1.2911,-1.2909,-1.291,-1.3024,-1.3025,-1.308,0,0,0,-1.2814,-1.2829,-1.2829,-1.2838,-1.2855,-1.2874,-1.2853,-1.2888,-1.2892,-1.2911,-1.2909,-1.2911,-1.3023,-1.3025,-1.3077,-1.3105,0,0,0,-1.2817,-1.2829,-1.2836,-1.2839,-1.2852,-1.2873,-1.2874,-1.2889,-1.289,-1.2908,-1.2911,-1.3022,-1.3024,-1.3074,-1.31,-1.3142,0,0,0,-1.2824,-1.2883,-1.2837,-1.2901,-1.2851,-1.2905,-1.2873,-1.2913,-1.2935,-1.291,-1.3023,-1.3025,-1.3073,-1.3096,-1.3139,-1.3182,-1.3201,0,0,-1.2907,-1.2893,-1.293,-1.289,-1.2956,-1.29,-1.2974,-1.2981,-1.2969,-1.3008,-1.301,-1.3078,-1.3099,-1.3141,-1.3294,-1.3309,0,0,0,-1.2961,-1.2988,-1.3003,-1.3024,-1.303,-1.3039,-1.3033,-1.3035,-1.3067,-1.2992,-1.3102,-1.3114,-1.3138,-1.3159,-1.3172,-1.3193,-1.3034,-1.3034,-1.3034,-1.3101,-1.3083,-1.3143,-1.3129,-1.3151,-1.3144,-1.316,-1.3162,-1.3137,-1.3164,-1.3177,-1.3271,-1.3296,-1.3305,-1.3327,-1.3195,-1.3195,-1.3195,-1.3195,-1.3224,-1.3261,-1.3225,-1.3272,-1.3253,-1.3292,-1.3287,-1.3269,-1.3303,-1.326,-1.328,-1.3238,-1.3322,-1.3341,-1.3199,-1.3199,-1.3198,-1.3198,-1.3197,-1.3316,-1.3331,-1.3332,-1.3363,-1.3388,-1.337,-1.3406,-1.3386,-1.3367,-1.3387,-1.34,-1.3399,-1.3399,-1.3394,-1.3394,-1.3395,-1.3395,-1.3395,-1.3395,-1.3414,-1.3413,-1.3445,-1.3457,-1.3469,-1.3482,-1.3474,-1.3486,-1.3494,-1.3477,-1.3477,-1.3452,-1.3332,-1.3305,-1.34,-1.34,-1.3399,-1.3398,-1.3398,-1.3552,-1.3517,-1.3567,-1.3579,-1.3591,-1.3619,-1.3592,-1.3617,-1.3623,-1.3642,-1.3611,-1.3524,-1.351,-1.35,-1.3477,-1.3612,-1.3612,-1.3612,-1.3612,-1.3633,-1.3622,-1.367,-1.3691,-1.3708,-1.3689,-1.3748,-1.3742,-1.3732,-1.3735,-1.3711,-1.3678,-1.3668,-1.366,-1.3647,-1.3626,-1.3795,-1.3795,-1.3796,-1.3718,-1.3709,-1.3763,-1.3751,-1.3759,-1.3767,-1.3822,-1.3848,-1.3828,-1.3803,-1.3738,-1.373,-1.3676,-1.3659,-1.3636,-1.3615,-1.3576,0,0]}]]